Location: ??
(31.9467°N, 34.8903°E)
Time: 18:26:53
(UTC+00:00)

Cosmos 1689 Rocket - Pass Details

Date: 29 October 2020
Orbit: 360 x 374 km, 97.5° (Epoch: 01 December)

Event Time Altitude Azimuth Distance (km) Brightness Sun altitude
Rises 15:16:32 0° 23° (NNE) 2,195 5.5 -5.6°
Reaches altitude 10° 15:18:36 10° 35° (NE) 1,344 4.4 -6.1°
Maximum altitude 15:21:10 30° 99° (E) 684 2.8 -6.6°
Drops below altitude 10° 15:23:43 10° 163° (SSE) 1,336 4.8 -7.1°
Sets 15:25:46 0° 174° (S) 2,179 6.0 -7.6°
